JBU1906 KTPA-KFLL

Flight info

Callsign JBU1906
Flight time 0h 35m
Altitude 23000
Route GANDY8 SABEE TEEKY4
Aircraft A21N/M-SDE2E3FGHIJ1RWXY/LB1

Departure

Time 2026-05-06 08:10
Airport Tampa International Airport (KTPA)

Arrival

Time 2026-05-06 08:46
Airport Fort Lauderdale Hollywood International Airport (KFLL)
Time Latitude Longitude Altitude Speed Heading
2026-05-06 07:50 27.97651 -82.53157 48 ft 0 kts 282°
2026-05-06 08:03 27.97650 -82.53155 48 ft 2 kts 282°
2026-05-06 08:03 27.97646 -82.53133 48 ft 3 kts 282°
2026-05-06 08:03 27.97643 -82.53118 47 ft 3 kts 282°
2026-05-06 08:03 27.97639 -82.53096 45 ft 2 kts 282°
2026-05-06 08:04 27.97636 -82.53079 46 ft 3 kts 257°
2026-05-06 08:04 27.97642 -82.53067 45 ft 3 kts 195°
2026-05-06 08:04 27.97660 -82.53065 46 ft 3 kts 181°
2026-05-06 08:04 27.97671 -82.53065 45 ft 0 kts 181°
2026-05-06 08:06 27.97653 -82.53065 48 ft 5 kts 181°
2026-05-06 08:06 27.97603 -82.53067 48 ft 9 kts 182°
2026-05-06 08:06 27.97544 -82.53042 48 ft 11 kts 117°
2026-05-06 08:07 27.97486 -82.52988 45 ft 13 kts 176°
2026-05-06 08:07 27.97388 -82.52988 47 ft 15 kts 181°
2026-05-06 08:07 27.97274 -82.52991 47 ft 17 kts 181°
2026-05-06 08:07 27.97147 -82.52998 45 ft 19 kts 183°
2026-05-06 08:08 27.97011 -82.53006 43 ft 21 kts 181°
2026-05-06 08:08 27.96857 -82.53009 46 ft 23 kts 182°
2026-05-06 08:08 27.96691 -82.53017 47 ft 23 kts 182°
2026-05-06 08:08 27.96562 -82.53024 47 ft 14 kts 182°
2026-05-06 08:09 27.96485 -82.53027 47 ft 6 kts 181°
2026-05-06 08:09 27.96446 -82.52999 46 ft 8 kts 114°
2026-05-06 08:09 27.96444 -82.52928 43 ft 10 kts 72°
2026-05-06 08:09 27.96509 -82.52897 42 ft 13 kts
2026-05-06 08:10 27.96790 -82.52886 44 ft 78 kts
2026-05-06 08:10 27.97578 -82.52858 44 ft 144 kts
2026-05-06 08:10 27.98690 -82.52821 309 ft 166 kts
2026-05-06 08:10 27.99828 -82.52823 1025 ft 160 kts 358°
2026-05-06 08:11 28.00942 -82.52945 1459 ft 165 kts 357°
2026-05-06 08:11 28.02078 -82.53275 1798 ft 181 kts 326°
2026-05-06 08:11 28.02923 -82.54404 2118 ft 199 kts 289°
2026-05-06 08:11 28.03108 -82.55985 2648 ft 210 kts 265°
2026-05-06 08:12 28.03005 -82.57740 3093 ft 237 kts 256°
2026-05-06 08:12 28.02245 -82.59455 3634 ft 255 kts 224°
2026-05-06 08:12 28.00702 -82.60459 4437 ft 265 kts 194°
2026-05-06 08:12 27.98837 -82.60469 5277 ft 274 kts 173°
2026-05-06 08:13 27.96925 -82.60141 6098 ft 282 kts 172°
2026-05-06 08:13 27.94948 -82.59814 6819 ft 292 kts 173°
2026-05-06 08:13 27.92917 -82.59509 7630 ft 296 kts 173°
2026-05-06 08:13 27.90861 -82.59224 8471 ft 299 kts 174°
2026-05-06 08:14 27.88781 -82.58949 9310 ft 303 kts 174°
2026-05-06 08:14 27.86670 -82.58673 10109 ft 308 kts 174°
2026-05-06 08:14 27.84495 -82.58394 10580 ft 324 kts 174°
2026-05-06 08:14 27.82191 -82.58102 10988 ft 340 kts 174°
2026-05-06 08:15 27.79797 -82.57801 11511 ft 350 kts 174°
2026-05-06 08:15 27.77362 -82.57466 12225 ft 355 kts 171°
2026-05-06 08:15 27.74992 -82.56636 12963 ft 360 kts 158°
2026-05-06 08:15 27.72670 -82.55520 13709 ft 364 kts 157°
2026-05-06 08:16 27.70331 -82.54382 14364 ft 370 kts 157°
2026-05-06 08:16 27.67948 -82.53237 14961 ft 376 kts 158°
2026-05-06 08:16 27.65515 -82.52077 15550 ft 382 kts 158°
2026-05-06 08:16 27.63042 -82.50902 16143 ft 389 kts 158°
2026-05-06 08:17 27.60528 -82.49709 16714 ft 395 kts 158°
2026-05-06 08:17 27.57973 -82.48496 17305 ft 402 kts 158°
2026-05-06 08:17 27.55432 -82.47122 17873 ft 408 kts 152°
2026-05-06 08:17 27.52940 -82.45629 18413 ft 415 kts 152°
2026-05-06 08:18 27.50394 -82.44088 18932 ft 419 kts 152°
2026-05-06 08:18 27.47809 -82.42522 19495 ft 422 kts 152°
2026-05-06 08:18 27.45184 -82.40940 20068 ft 424 kts 152°
2026-05-06 08:18 27.42607 -82.39394 20635 ft 427 kts 152°
2026-05-06 08:19 27.39973 -82.37818 21225 ft 429 kts 153°
2026-05-06 08:19 27.37336 -82.36236 21778 ft 432 kts 153°
2026-05-06 08:19 27.34675 -82.34639 22334 ft 435 kts 153°
2026-05-06 08:19 27.31993 -82.33030 22841 ft 438 kts 153°
2026-05-06 08:20 27.29290 -82.31413 23060 ft 443 kts 153°
2026-05-06 08:20 27.26526 -82.29766 23105 ft 457 kts 153°
2026-05-06 08:20 27.23709 -82.28084 23097 ft 458 kts 153°
2026-05-06 08:20 27.20895 -82.26395 23079 ft 458 kts 153°
2026-05-06 08:21 27.18083 -82.24713 23062 ft 458 kts 153°
2026-05-06 08:21 27.15275 -82.23038 23065 ft 458 kts 153°
2026-05-06 08:21 27.12455 -82.21359 23062 ft 458 kts 153°
2026-05-06 08:21 27.09629 -82.19708 23060 ft 457 kts 156°
2026-05-06 08:22 27.06635 -82.18606 23055 ft 453 kts 172°
2026-05-06 08:22 27.03515 -82.18046 23086 ft 453 kts 174°
2026-05-06 08:22 27.00404 -82.17500 23081 ft 454 kts 173°
2026-05-06 08:22 26.97281 -82.16921 23084 ft 456 kts 173°
2026-05-06 08:23 26.94145 -82.16319 23079 ft 456 kts 173°
2026-05-06 08:23 26.91023 -82.15718 23081 ft 456 kts 172°
2026-05-06 08:23 26.87893 -82.15113 23076 ft 456 kts 172°
2026-05-06 08:23 26.84763 -82.14506 23078 ft 456 kts 172°
2026-05-06 08:24 26.81703 -82.13711 23065 ft 459 kts 163°
2026-05-06 08:24 26.78805 -82.12204 23067 ft 461 kts 148°
2026-05-06 08:24 26.76313 -82.09970 23073 ft 461 kts 133°
2026-05-06 08:24 26.74370 -82.07136 23073 ft 458 kts 118°
2026-05-06 08:25 26.73068 -82.03898 23080 ft 455 kts 107°
2026-05-06 08:25 26.72096 -82.00540 23070 ft 454 kts 105°
2026-05-06 08:25 26.71142 -81.97171 23068 ft 454 kts 105°
2026-05-06 08:25 26.70168 -81.93810 23065 ft 454 kts 105°
2026-05-06 08:26 26.69175 -81.90456 23064 ft 454 kts 106°
2026-05-06 08:26 26.68173 -81.87108 23064 ft 455 kts 106°
2026-05-06 08:26 26.67167 -81.83760 23064 ft 455 kts 106°
2026-05-06 08:26 26.66159 -81.80403 23059 ft 455 kts 106°
2026-05-06 08:27 26.65150 -81.77043 23062 ft 458 kts 106°
2026-05-06 08:27 26.64132 -81.73668 23072 ft 458 kts 106°
2026-05-06 08:27 26.63114 -81.70296 23074 ft 458 kts 106°
2026-05-06 08:27 26.62098 -81.66925 23070 ft 458 kts 106°
2026-05-06 08:28 26.61057 -81.63555 23065 ft 458 kts 109°
2026-05-06 08:28 26.59625 -81.60377 23061 ft 461 kts 122°
2026-05-06 08:28 26.57744 -81.57473 23073 ft 462 kts 126°
2026-05-06 08:28 26.55791 -81.54608 23071 ft 462 kts 126°
2026-05-06 08:29 26.53851 -81.51759 23049 ft 460 kts 126°
2026-05-06 08:29 26.51918 -81.48914 22324 ft 460 kts 126°
2026-05-06 08:29 26.49987 -81.46063 21276 ft 463 kts 126°
2026-05-06 08:29 26.48043 -81.43191 20411 ft 462 kts 125°
2026-05-06 08:30 26.46117 -81.40340 19705 ft 457 kts 125°
2026-05-06 08:30 26.44216 -81.37528 19048 ft 451 kts 125°
2026-05-06 08:30 26.42343 -81.34759 18442 ft 445 kts 125°
2026-05-06 08:30 26.40441 -81.32058 17764 ft 439 kts 128°
2026-05-06 08:31 26.38502 -81.29456 17070 ft 434 kts 128°
2026-05-06 08:31 26.36585 -81.26892 16418 ft 428 kts 128°
2026-05-06 08:31 26.34693 -81.24364 15812 ft 421 kts 128°
2026-05-06 08:31 26.32831 -81.21869 15220 ft 415 kts 128°
2026-05-06 08:32 26.30998 -81.19414 14629 ft 410 kts 128°
2026-05-06 08:32 26.29187 -81.16992 14050 ft 405 kts 129°
2026-05-06 08:32 26.27391 -81.14602 13429 ft 400 kts 129°
2026-05-06 08:32 26.25604 -81.12254 12847 ft 394 kts 129°
2026-05-06 08:33 26.23827 -81.09928 12262 ft 394 kts 129°
2026-05-06 08:33 26.22050 -81.07602 11665 ft 395 kts 129°
2026-05-06 08:33 26.20293 -81.05292 11262 ft 385 kts 129°
2026-05-06 08:33 26.18616 -81.03089 11004 ft 370 kts 129°
2026-05-06 08:34 26.16983 -81.00947 10799 ft 355 kts 129°
2026-05-06 08:34 26.14369 -80.96623 10387 ft 323 kts 103°
2026-05-06 08:34 26.13941 -80.94224 10208 ft 309 kts 97°
2026-05-06 08:35 26.13605 -80.91874 9775 ft 307 kts 97°
2026-05-06 08:35 26.13258 -80.89530 9289 ft 306 kts 97°
2026-05-06 08:35 26.12897 -80.87217 8868 ft 302 kts 98°
2026-05-06 08:35 26.12527 -80.84923 8416 ft 300 kts 98°
2026-05-06 08:36 26.12156 -80.82650 8006 ft 297 kts 99°
2026-05-06 08:36 26.11783 -80.80395 7580 ft 295 kts 99°
2026-05-06 08:36 26.11415 -80.78164 7186 ft 292 kts 99°
2026-05-06 08:36 26.11046 -80.75952 6823 ft 288 kts 99°
2026-05-06 08:37 26.10685 -80.73795 6584 ft 281 kts 99°
2026-05-06 08:37 26.10329 -80.71681 6393 ft 275 kts 100°
2026-05-06 08:37 26.09981 -80.69617 6210 ft 268 kts 100°
2026-05-06 08:37 26.09643 -80.67607 6037 ft 260 kts 100°
2026-05-06 08:38 26.09312 -80.65640 5875 ft 260 kts 100°
2026-05-06 08:38 26.08978 -80.63666 5711 ft 259 kts 100°
2026-05-06 08:38 26.08644 -80.61696 5551 ft 259 kts 100°
2026-05-06 08:38 26.08313 -80.59739 5384 ft 256 kts 100°
2026-05-06 08:39 26.07983 -80.57788 5219 ft 255 kts 100°
2026-05-06 08:39 26.07654 -80.55842 5061 ft 255 kts 100°
2026-05-06 08:39 26.07333 -80.53945 4959 ft 242 kts 100°
2026-05-06 08:39 26.07028 -80.52147 4964 ft 235 kts 100°
2026-05-06 08:40 26.06930 -80.51568 4964 ft 235 kts 100°
2026-05-06 08:40 26.06748 -80.50082 4984 ft 235 kts 92°
2026-05-06 08:40 26.06731 -80.48261 4987 ft 234 kts 89°
2026-05-06 08:40 26.06740 -80.46477 4729 ft 230 kts 89°
2026-05-06 08:41 26.06740 -80.44699 4363 ft 230 kts 90°
2026-05-06 08:41 26.06736 -80.42918 4059 ft 230 kts 90°
2026-05-06 08:41 26.06733 -80.41140 3988 ft 230 kts 90°
2026-05-06 08:41 26.06728 -80.39366 3988 ft 230 kts 90°
2026-05-06 08:42 26.06719 -80.37607 3944 ft 223 kts 89°
2026-05-06 08:42 26.06719 -80.35896 3607 ft 221 kts 91°
2026-05-06 08:42 26.06704 -80.34192 3243 ft 221 kts 90°
2026-05-06 08:42 26.06692 -80.32491 2909 ft 217 kts 90°
2026-05-06 08:43 26.06682 -80.30847 2697 ft 210 kts 90°
2026-05-06 08:43 26.06672 -80.29251 2428 ft 203 kts 90°
2026-05-06 08:43 26.06663 -80.27703 2125 ft 197 kts 90°
2026-05-06 08:43 26.06655 -80.26245 1886 ft 184 kts 90°
2026-05-06 08:44 26.06647 -80.24856 1636 ft 170 kts 90°
2026-05-06 08:44 26.06640 -80.23653 1403 ft 141 kts 90°
2026-05-06 08:44 26.06634 -80.22635 1206 ft 131 kts 90°
2026-05-06 08:44 26.06629 -80.21613 1037 ft 130 kts 90°
2026-05-06 08:45 26.06623 -80.20622 877 ft 130 kts 90°
2026-05-06 08:45 26.06617 -80.19621 714 ft 129 kts 90°
2026-05-06 08:45 26.06610 -80.18626 540 ft 129 kts 90°
2026-05-06 08:45 26.06601 -80.17630 364 ft 129 kts 90°
2026-05-06 08:46 26.06600 -80.16633 212 ft 129 kts 90°
2026-05-06 08:46 26.06591 -80.15639 39 ft 128 kts 90°
2026-05-06 08:46 26.06589 -80.14872 24 ft 39 kts 90°
2026-05-06 08:46 26.06587 -80.14718 34 ft 14 kts 90°
2026-05-06 08:47 26.06666 -80.14694 36 ft 15 kts 299°
2026-05-06 08:47 26.06679 -80.14813 27 ft 16 kts 275°
2026-05-06 08:47 26.06695 -80.14910 24 ft 9 kts 303°
2026-05-06 08:47 26.06756 -80.14901 21 ft 11 kts 54°
2026-05-06 08:48 26.06771 -80.14809 21 ft 14 kts 89°
2026-05-06 08:48 26.06787 -80.14713 21 ft 13 kts 32°
2026-05-06 08:48 26.06861 -80.14744 21 ft 7 kts 315°
2026-05-06 08:48 26.06906 -80.14790 21 ft 10 kts 330°
2026-05-06 08:49 26.06929 -80.14785 22 ft 6 kts 36°
2026-05-06 08:49 26.06979 -80.14755 21 ft 10 kts 357°
2026-05-06 08:49 26.07043 -80.14811 22 ft 13 kts 317°
2026-05-06 08:49 26.07129 -80.14856 21 ft 16 kts
2026-05-06 08:50 26.07240 -80.14853 21 ft 14 kts
2026-05-06 08:50 26.07338 -80.14852 21 ft 13 kts 360°
2026-05-06 08:50 26.07367 -80.14849 21 ft 2 kts 33°
2026-05-06 08:50 26.07362 -80.14825 21 ft 5 kts 112°
2026-05-06 08:51 26.07350 -80.14789 21 ft 6 kts 109°
2026-05-06 08:51 26.07342 -80.14763 21 ft 0 kts 108°